Back to catalog

CENTISPACE-1 S13

AliveNavigationLEO
NORAD 62582·PAYLOAD·🇨🇳 China

Launched Jan 13, 2025 from Yellow Sea Launch Area

Loading…

Next Passes (next 24 hours)

TLE

FreshSource: Space-Track

Epoch: Sep 14, 2026, 17:14 UTC

1 62582U 25007H   26257.71835758 -.00000055  00000-0  81411-4 0  9993
2 62582  54.9827 338.3905 0009014 258.3017 101.6928 13.80625601 87094

Track CENTISPACE-1 S13 in real time with AllMySat

Download on the App Store